STARLINK-2549 (48314 NORAD) Tracking and Keplerian Element Data

This shows tracking and keplerian element data for the satellite.

Feedback or suggestion? Click here.




ElementValue
Catalog48314
NameSTARLINK-2549
Epoch Orbit196
Epoch Day173.83334491
Epoch Year2021
RAAN258.8504
Inclination53.0507
Eccentricity0.0001115
Argument of Perigee82.3134
Mean Anonmoly251.056
Mean Motion15.41247664
Decay Rate-0.01161114
L11 48314U 21036AQ 21173.83334491 -.01161114 00000-0 -30153-1 0 9991
L22 48314 53.0507 258.8504 0001115 82.3134 251.0560 15.41247664 1968

Live tracking and technical data element details for STARLINK-2549 (NORAD 48314). STARLINK-2549 can be tracked NOW for your location showing map with azimuth and elevation plus other details from your city location.

Track the satellite on the map from your city or location and see movement details for azimuth, elevation, latitude, longitude, range, height, and movement on the map or in text.







IsCatalogInMostPopularTable: catalog: 48314, numindb: 22
Update: records affected: 1



GetName: 48314 STARLINK-2549

Hit Count: updated at: Thu, 24 Jun 2021 02:22:23 GMT